GW0751 Weather Reports


Display with metric or nautical units.
time (UTC)temp
F
wind
direction
speed
MPH
gust
MPH
rain 1hr
in
rain 24hr
in
rain mn
in
humidity
%
barometer
mb
20260904115633 49 225 0.0 0.0 0.01 0.00 0.01 96 1011.6
20260904115113 49 225 0.0 0.0 0.01 0.00 0.01 96 1011.6
20260904114538 49 248 0.0 0.0 0.01 0.00 0.01 96 1011.6
20260904114018 49 248 0.0 0.0 0.01 0.00 0.01 96 1011.7
20260904113457 50 248 0.0 0.0 0.01 0.00 0.01 96 1011.7
20260904112423 50 248 0.0 0.0 0.00 0.00 0.00 96 1011.7
20260904111903 50 225 0.0 0.0 0.00 0.00 0.00 96 1011.7
20260904111343 50 225 0.0 0.0 0.00 0.00 0.00 96 1011.5
20260904110828 50 248 0.0 0.0 0.00 0.00 0.00 96 1011.5
20260904110308 50 225 0.0 0.0 0.00 0.00 0.00 96 1011.5
20260904105748 50 225 0.0 0.0 0.00 0.00 0.00 96 1011.5
20260904105227 50 225 0.0 0.0 0.00 0.00 0.00 96 1011.5
20260904104713 51 225 0.0 0.0 0.00 0.00 0.00 96 1011.5
20260904104152 51 225 0.0 0.0 0.00 0.00 0.00 96 1011.5
20260904103633 51 225 0.0 0.0 0.00 0.00 0.00 96 1011.5
20260904103113 51 225 0.0 0.0 0.00 0.00 0.00 96 1011.5
20260904102038 51 225 0.0 0.0 0.00 0.00 0.00 96 1011.5
20260904100958 51 248 0.0 0.0 0.00 0.00 0.00 96 1011.5
20260904095923 51 225 0.0 0.0 0.00 0.00 0.00 96 1011.5
20260904095403 51 225 0.0 0.0 0.00 0.00 0.00 96 1011.3
20260904094843 51 248 0.0 0.0 0.00 0.00 0.00 96 1011.3
20260904094328 51 225 0.0 0.0 0.00 0.00 0.00 96 1011.3
20260904093808 51 248 0.0 0.0 0.00 0.00 0.00 96 1011.3
20260904093248 51 248 0.0 0.0 0.00 0.00 0.00 96 1011.3
20260904092728 51 248 0.0 0.0 0.00 0.00 0.00 96 1011.3
20260904092213 51 225 0.0 0.0 0.00 0.00 0.00 96 1011.3
20260904091133 52 225 0.0 0.0 0.00 0.00 0.00 96 1011.3
20260904090613 52 225 0.0 0.0 0.00 0.00 0.00 96 1011.3
20260904090058 52 248 0.0 0.0 0.00 0.00 0.00 96 1011.5
20260904085538 52 248 0.0 0.0 0.00 0.00 0.00 96 1011.5
20260904085018 52 225 0.0 0.0 0.00 0.00 0.00 95 1011.4
20260904084423 52 225 0.0 0.0 0.00 0.00 0.00 95 1011.4
20260904083903 53 225 0.0 0.0 0.00 0.00 0.00 95 1011.5
20260904082828 53 248 0.0 0.0 0.00 0.00 0.00 95 1011.4
20260904082308 53 225 0.0 0.0 0.00 0.00 0.00 95 1011.4
20260904081748 53 270 0.0 0.0 0.00 0.00 0.00 95 1011.5
20260904081228 53 225 0.0 0.0 0.00 0.00 0.00 95 1011.5
20260904080713 53 225 0.0 0.0 0.00 0.00 0.00 95 1011.5
20260904075633 53 248 0.0 0.0 0.00 0.00 0.00 95 1011.4
20260904075133 53 225 0.0 0.0 0.00 0.00 0.00 95 1011.4
20260904074558 53 270 0.0 0.0 0.00 0.00 0.00 94 1011.4
20260904073538 53 225 0.0 0.0 0.00 0.00 0.00 94 1011.4
20260904072458 54 225 0.0 0.0 0.00 0.00 0.00 94 1011.3
20260904071443 54 68 0.0 0.0 0.00 0.00 0.00 94 1011.3
20260904070923 54 225 0.0 0.0 0.00 0.00 0.00 94 1011.3
20260904070403 54 225 0.0 0.0 0.00 0.00 0.00 94 1011.3
20260904065843 54 225 0.0 0.0 0.00 0.00 0.57 94 1011.3
20260904064808 55 248 0.0 0.0 0.00 0.00 0.57 94 1011.3
20260904064248 55 225 0.0 0.0 0.00 0.00 0.57 94 1011.3
20260904063728 55 225 0.0 0.0 0.00 0.00 0.57 94 1011.3
20260904063213 55 248 0.0 0.0 0.00 0.00 0.57 94 1011.3
20260904062654 55 248 0.0 0.0 0.00 0.00 0.57 94 1011.2
20260904062133 55 248 0.0 0.0 0.00 0.00 0.57 94 1011.2
20260904061613 56 248 0.0 0.0 0.00 0.00 0.57 94 1011.3
20260904061058 56 225 0.0 0.0 0.00 0.00 0.57 94 1011.3
20260904060538 56 225 0.0 0.0 0.00 0.00 0.57 93 1011.4
20260904055458 56 270 0.0 0.0 0.00 0.00 0.57 93 1011.4
20260904054943 56 248 0.0 0.0 0.00 0.00 0.57 93 1011.4
20260904054443 57 225 2.0 2.0 0.00 0.00 0.57 93 1011.4
20260904053923 57 225 2.0 2.0 0.00 0.00 0.57 92 1011.5
20260904053403 57 225 0.0 0.0 0.00 0.00 0.57 92 1011.5
20260904052843 57 225 0.0 0.0 0.00 0.00 0.57 92 1011.6
20260904052323 58 270 0.0 0.0 0.00 0.00 0.57 91 1011.6
20260904050728 58 225 0.0 0.0 0.00 0.00 0.57 91 1011.6
20260904050208 59 225 0.0 0.0 0.00 0.00 0.57 91 1011.6
20260904045653 59 248 0.0 0.0 0.00 0.00 0.57 91 1011.6
20260904044613 59 203 0.0 0.0 0.00 0.00 0.57 90 1011.6
20260904044053 59 225 0.0 0.0 0.00 0.00 0.57 90 1011.6
20260904043538 59 225 0.0 0.0 0.00 0.00 0.57 89 1011.6
20260904043018 59 248 0.0 0.0 0.00 0.00 0.57 89 1011.5
20260904042458 59 248 0.0 0.0 0.00 0.00 0.57 89 1011.5
20260904041938 60 203 0.0 0.0 0.00 0.00 0.57 89 1011.5
20260904040903 60 225 0.0 0.0 0.00 0.00 0.57 89 1011.4
20260904035824 60 203 0.0 0.0 0.00 0.00 0.57 89 1011.4
20260904035308 60 248 0.0 0.0 0.00 0.00 0.57 89 1011.4
20260904034228 60 248 3.0 3.0 0.00 0.00 0.57 89 1011.4
20260904033708 60 270 0.0 0.0 0.00 0.00 0.57 88 1011.3
20260904033153 60 248 0.0 0.0 0.00 0.00 0.57 88 1011.3
20260904032113 60 203 3.0 3.0 0.00 0.00 0.57 88 1011.1
20260904031553 60 270 4.0 4.0 0.00 0.00 0.57 88 1011.1
20260904031039 60 225 0.0 0.0 0.00 0.00 0.57 88 1011.1
20260904030538 60 225 0.0 0.0 0.00 0.00 0.57 88 1011.2
20260904030038 60 225 3.0 3.0 0.00 0.00 0.57 88 1011.2
20260904025518 60 270 2.0 2.0 0.00 0.00 0.57 88 1011.2
20260904024958 60 293 0.0 0.0 0.00 0.00 0.57 88 1011.2
20260904024438 61 225 0.0 0.0 0.00 0.00 0.57 88 1011.2
20260904023923 61 68 0.0 0.0 0.00 0.00 0.57 88 1011.2
20260904023403 61 225 2.0 2.0 0.00 0.00 0.57 88 1011.2
20260904022843 61 248 3.0 3.0 0.00 0.00 0.57 87 1011.2
20260904022323 61 315 0.0 0.0 0.00 0.00 0.57 87 1011.2
20260904021808 61 270 1.0 1.0 0.00 0.00 0.57 87 1011.3
20260904020708 61 248 1.0 1.0 0.00 0.00 0.57 87 1011.3
20260904020153 61 270 3.0 3.0 0.00 0.00 0.57 87 1011.4
20260904015633 61 203 3.0 3.0 0.00 0.00 0.57 87 1011.4
20260904015114 61 225 5.0 5.0 0.00 0.00 0.57 87 1011.4
20260904014554 61 248 3.0 3.0 0.00 0.00 0.57 87 1011.4
20260904014038 61 203 4.0 4.0 0.00 0.00 0.57 86 1011.4
20260904013519 62 270 4.0 4.0 0.00 0.00 0.57 86 1011.4
20260904012958 62 248 4.0 4.0 0.00 0.00 0.57 85 1011.4
20260904012438 62 203 1.0 1.0 0.00 0.00 0.57 85 1011.4
20260904011924 62 270 2.0 2.0 0.00 0.00 0.57 85 1011.4
20260904011404 62 225 2.0 2.0 0.00 0.00 0.57 85 1011.5
20260904010843 63 248 0.0 0.0 0.00 0.00 0.57 85 1011.5
20260904010324 63 225 1.0 1.0 0.00 0.00 0.57 85 1011.4
20260904005809 63 248 3.0 3.0 0.00 0.00 0.57 84 1011.4
20260904005249 63 248 2.0 2.0 0.00 0.00 0.57 84 1011.5
20260904004729 63 203 3.0 3.0 0.00 0.00 0.57 83 1011.5
20260904004208 63 248 2.0 2.0 0.00 0.00 0.57 84 1011.5
20260904003654 64 248 1.0 1.0 0.00 0.00 0.57 84 1011.5
20260904003133 63 270 3.0 3.0 0.00 0.00 0.57 84 1011.5
20260904002614 64 225 4.0 4.0 0.00 0.00 0.57 84 1011.7
20260904002053 64 248 3.0 3.0 0.00 0.00 0.57 85 1011.7
20260904001539 64 248 3.0 3.0 0.00 0.00 0.57 85 1011.7
20260904001018 64 248 4.0 4.0 0.00 0.00 0.57 86 1011.7
20260904000459 63 225 4.0 4.0 0.00 0.00 0.57 88 1011.9
20260903235939 63 225 2.0 2.0 0.00 0.00 0.57 89 1011.9
20260903235424 62 225 2.0 2.0 0.00 0.00 0.57 89 1011.9
20260903234843 62 203 3.0 3.0 0.00 0.00 0.57 89 1012.1
20260903234324 62 225 3.0 3.0 0.00 0.00 0.57 88 1012.1
20260903233809 62 180 3.0 3.0 0.01 0.00 0.57 88 1012.1
20260903233248 63 270 0.0 0.0 0.01 0.00 0.57 87 1012.1
20260903232209 63 270 3.0 3.0 0.01 0.00 0.57 87 1012.2
20260903231649 63 248 2.0 2.0 0.01 0.00 0.57 87 1012.4
20260903231134 63 248 1.0 1.0 0.01 0.00 0.57 86 1012.4
20260903225018 65 225 2.0 2.0 0.01 0.00 0.57 83 1012.6
20260903223418 66 203 2.0 2.0 0.00 0.00 0.56 80 1012.6
20260903222843 66 203 4.0 4.0 0.00 0.00 0.56 77 1012.6
20260903222324 68 248 1.0 1.0 0.00 0.00 0.56 77 1012.6
20260903221249 68 338 1.0 1.0 0.00 0.00 0.56 77 1012.6
20260903220228 69 225 3.0 3.0 0.00 0.00 0.56 76 1012.6
20260903215709 69 225 4.0 4.0 0.00 0.00 0.56 75 1012.6
20260903215149 69 248 4.0 4.0 0.00 0.00 0.56 74 1012.8
20260903214634 69 225 5.0 5.0 0.00 0.00 0.56 73 1012.8
20260903213554 71 225 3.0 3.0 0.00 0.00 0.56 72 1012.8
20260903212519 71 225 4.0 4.0 0.00 0.00 0.56 72 1012.6
20260903211959 71 180 3.0 3.0 0.01 0.00 0.56 73 1012.6
20260903211439 71 248 4.0 4.0 0.01 0.00 0.56 72 1012.6
20260903210919 71 45 4.0 4.0 0.01 0.00 0.56 72 1012.6
20260903210404 71 270 4.0 4.0 0.01 0.00 0.56 72 1012.9
20260903205844 72 203 3.0 3.0 0.01 0.00 0.56 72 1012.9
20260903205324 72 248 2.0 2.0 0.01 0.00 0.56 72 1012.9
20260903204804 72 203 3.0 3.0 0.01 0.00 0.56 71 1012.9
20260903204249 72 338 4.0 4.0 0.01 0.00 0.56 70 1012.9
20260903203729 73 225 4.0 4.0 0.01 0.00 0.56 70 1012.8
20260903203209 74 270 4.0 4.0 0.01 0.00 0.56 71 1012.8
20260903202648 73 270 3.0 3.0 0.01 0.00 0.56 72 1012.9
20260903202134 74 158 4.0 4.0 0.01 0.00 0.56 72 1012.9
20260903201614 73 0 4.0 4.0 0.00 0.00 0.55 72 1013.0
20260903200534 73 225 4.0 4.0 0.00 0.00 0.55 73 1013.1
20260903200019 73 203 3.0 3.0 0.00 0.00 0.55 74 1013.1
20260903195459 72 225 2.0 2.0 0.00 0.00 0.55 75 1013.1
20260903194419 72 225 2.0 2.0 0.00 0.00 0.55 76 1013.1
20260903193859 73 338 1.0 1.0 0.00 0.00 0.55 74 1013.3
20260903193344 74 248 2.0 2.0 0.00 0.00 0.55 74 1013.3
20260903192844 73 180 3.0 3.0 0.00 0.00 0.55 76 1013.5
20260903192324 71 113 1.0 1.0 0.00 0.00 0.55 80 1013.5
20260903191824 69 293 1.0 1.0 0.00 0.00 0.55 82 1013.5
20260903190804 68 203 1.0 1.0 0.00 0.00 0.55 83 1013.6
20260903190244 66 180 3.0 3.0 0.00 0.00 0.55 85 1013.7
20260903185729 66 203 6.0 6.0 0.00 0.00 0.55 85 1013.7
20260903184649 67 180 4.0 4.0 0.00 0.00 0.55 86 1013.6
20260903184129 66 248 1.0 1.0 0.00 0.00 0.55 89 1013.7
20260903183614 66 248 3.0 3.0 0.00 0.00 0.55 89 1013.7
20260903183054 65 225 4.0 4.0 0.01 0.00 0.55 91 1013.7
20260903182534 64 293 2.0 2.0 0.02 0.00 0.55 92 1013.7
20260903182014 64 225 3.0 3.0 0.02 0.00 0.55 93 1013.7
20260903181459 64 270 4.0 4.0 0.02 0.00 0.55 94 1013.6
20260903180939 64 248 3.0 3.0 0.03 0.00 0.55 94 1013.6
20260903180419 63 225 4.0 4.0 0.03 0.00 0.55 94 1013.5
20260903175859 63 180 5.0 5.0 0.04 0.00 0.55 95 1013.5
20260903174824 62 225 5.0 5.0 0.06 0.00 0.55 95 1013.5
20260903174304 62 270 5.0 5.0 0.07 0.00 0.55 95 1013.5
20260903173224 63 225 4.0 4.0 0.09 0.00 0.54 95 1013.5
20260903172709 62 203 4.0 4.0 0.09 0.00 0.54 96 1013.6
20260903172054 62 248 4.0 4.0 0.10 0.00 0.53 96 1013.6
20260903171034 62 248 5.0 5.0 0.09 0.00 0.52 96 1013.5
20260903170514 62 90 5.0 5.0 0.11 0.00 0.52 96 1013.4
20260903165954 62 248 5.0 5.0 0.10 0.00 0.51 96 1013.4
20260903165439 62 225 4.0 4.0 0.10 0.00 0.51 96 1013.4
20260903164919 62 248 6.0 6.0 0.09 0.00 0.49 96 1013.3
20260903164359 62 180 4.0 4.0 0.09 0.00 0.48 97 1013.3
20260903163324 62 203 4.0 4.0 0.08 0.00 0.45 97 1013.3
20260903162804 62 248 4.0 4.0 0.08 0.00 0.45 97 1013.3
20260903162244 62 225 5.0 5.0 0.07 0.00 0.44 97 1013.3
20260903161724 62 135 3.0 3.0 0.07 0.00 0.43 97 1013.5
20260903160649 62 180 2.0 2.0 0.08 0.00 0.41 97 1013.5
20260903160129 62 113 1.0 1.0 0.09 0.00 0.41 97 1013.5
20260903155609 62 180 2.0 2.0 0.10 0.00 0.41 97 1013.5
20260903154534 61 225 4.0 4.0 0.10 0.00 0.39 97 1013.5
20260903154014 61 248 4.0 4.0 0.10 0.00 0.38 97 1013.5
20260903153454 62 248 4.0 4.0 0.10 0.00 0.37 97 1013.5
20260903152954 62 180 3.0 3.0 0.11 0.00 0.37 97 1013.7
20260903152439 61 180 4.0 4.0 0.12 0.00 0.37 97 1013.7
20260903151934 61 203 3.0 3.0 0.11 0.00 0.36 97 1013.7
20260903150859 61 225 2.0 2.0 0.10 0.00 0.33 97 1013.6
20260903150339 61 225 5.0 5.0 0.10 0.00 0.32 97 1013.5
20260903145819 61 203 3.0 3.0 0.10 0.00 0.31 97 1013.5
20260903145320 61 248 3.0 3.0 0.10 0.00 0.30 97 1013.5
20260903144804 61 248 2.0 2.0 0.10 0.00 0.29 97 1013.5
20260903144244 61 180 3.0 3.0 0.10 0.00 0.28 97 1013.5
20260903143725 61 270 4.0 4.0 0.10 0.00 0.27 97 1013.4
20260903143204 61 248 4.0 4.0 0.11 0.00 0.26 97 1013.4
20260903142649 61 203 1.0 1.0 0.12 0.00 0.25 97 1013.4
20260903142130 61 203 3.0 3.0 0.14 0.00 0.25 97 1013.4
20260903141609 61 203 3.0 3.0 0.15 0.00 0.24 96 1013.3
20260903141049 61 225 3.0 3.0 0.14 0.00 0.23 96 1013.3
20260903140535 61 248 4.0 4.0 0.13 0.00 0.22 96 1013.1
20260903140014 61 270 1.0 1.0 0.13 0.00 0.21 96 1013.1
20260903135454 60 248 3.0 3.0 0.13 0.00 0.20 96 1013.1
20260903134934 60 180 1.0 1.0 0.12 0.00 0.19 96 1013.1
20260903134419 60 225 1.0 1.0 0.12 0.00 0.18 96 1013.1
20260903133859 60 203 1.0 1.0 0.12 0.00 0.17 96 1013.3
20260903133339 60 203 3.0 3.0 0.10 0.00 0.15 96 1013.3
20260903132306 60 248 3.0 3.0 0.08 0.00 0.11 96 1013.4
20260903131804 60 225 1.0 1.0 0.06 0.00 0.09 96 1013.4
20260903131244 60 270 3.0 3.0 0.06 0.00 0.09 96 1013.4
20260903130725 60 248 1.0 1.0 0.07 0.00 0.09 96 1013.4
20260903130204 60 270 1.0 1.0 0.06 0.00 0.08 96 1013.5
20260903125649 60 225 0.0 0.0 0.07 0.00 0.08 96 1013.5
20260903125129 60 248 0.0 0.0 0.06 0.00 0.07 96 1013.6
20260903124610 60 248 0.0 0.0 0.06 0.00 0.06 96 1013.6
20260903124049 60 270 1.0 1.0 0.05 0.00 0.05 96 1013.8
20260903123014 60 225 2.0 2.0 0.04 0.00 0.04 96 1013.9
20260903122454 60 248 0.0 0.0 0.03 0.00 0.03 96 1013.9
20260903121934 60 158 0.0 0.0 0.03 0.00 0.03 96 1013.9
20260903121419 60 225 0.0 0.0 0.03 0.00 0.03 96 1014.0
20260903120859 60 23 1.0 1.0 0.02 0.00 0.02 96 1014.0
20260903120340 60 225 0.0 0.0 0.02 0.00 0.02 96 1014.0